K4TPD-5 Weather Reports


time (UTC)temp
F
wind
direction
speed
knots
gust
knots
rain 1hr
in
rain 24hr
in
rain mn
in
humidity
%
barometer
mb
20260906174036 94 263 2.6 4.3 0.00 0.00 0.00 69 1010.3
20260906173542 94 254 2.6 7.0 0.00 0.00 0.00 69 1010.3
20260906173025 94 232 3.5 7.0 0.00 0.00 0.00 67 1010.4
20260906172530 94 229 1.7 5.2 0.00 0.00 0.00 66 1010.5
20260906172036 93 234 2.6 6.1 0.00 0.00 0.00 68 1010.6
20260906171523 93 255 1.7 6.1 0.00 0.00 0.00 71 1010.6
20260906171028 93 260 0.0 0.9 0.00 0.00 0.00 68 1010.6
20260906170534 93 214 0.0 4.3 0.00 0.00 0.00 69 1010.6
20260906170039 93 214 1.7 5.2 0.00 0.00 0.00 69 1010.7
20260906165524 92 240 0.0 5.2 0.00 0.00 0.00 69 1010.7
20260906165029 93 242 2.6 4.3 0.00 0.00 0.00 67 1010.8
20260906164535 93 184 0.0 4.3 0.00 0.00 0.00 67 1010.8
20260906164038 93 207 0.9 6.1 0.00 0.00 0.00 68 1010.9
20260906163603 93 244 3.5 6.1 0.00 0.00 0.00 67 1010.9
20260906163046 93 336 2.6 4.3 0.00 0.00 0.00 73 1011.0
20260906162550 92 336 0.9 4.3 0.00 0.00 0.00 72 1011.1
20260906162035 92 336 2.6 4.3 0.00 0.00 0.00 71 1011.2
20260906161523 92 336 2.6 4.3 0.00 0.00 0.00 73 1011.2
20260906161028 92 336 0.9 4.3 0.00 0.00 0.00 71 1011.2
20260906160532 92 336 0.0 0.0 0.00 0.00 0.00 71 1011.3
20260906160038 91 336 0.0 4.3 0.00 0.00 0.00 72 1011.3
20260906155541 91 336 2.6 4.3 0.00 0.00 0.00 74 1011.3
20260906155027 90 336 0.0 1.7 0.00 0.00 0.00 78 1011.3
20260906154532 89 337 0.0 0.0 0.00 0.00 0.00 78 1011.3
20260906154035 88 339 0.0 0.0 0.00 0.00 0.00 78 1011.4
20260906153542 88 336 0.0 0.0 0.00 0.00 0.00 78 1011.4
20260906153027 88 336 0.0 0.0 0.00 0.00 0.00 81 1011.5
20260906152531 88 336 0.0 0.0 0.00 0.00 0.00 80 1011.5
20260906152041 88 336 0.0 0.9 0.00 0.00 0.00 81 1011.4
20260906151544 87 336 0.0 0.9 0.00 0.00 0.00 83 1011.4
20260906151048 87 336 0.0 0.0 0.00 0.00 0.00 84 1011.4
20260906150532 86 336 0.0 0.9 0.00 0.00 0.00 84 1011.4
20260906150038 86 336 0.0 3.5 0.00 0.00 0.00 85 1011.4
20260906145541 86 336 0.0 4.3 0.00 0.00 0.00 85 1011.5
20260906145028 86 336 1.7 4.3 0.00 0.00 0.00 85 1011.5
20260906144552 85 336 1.7 4.3 0.00 0.00 0.00 87 1011.4
20260906144033 85 336 2.6 4.3 0.00 0.00 0.00 88 1011.4
20260906143600 84 336 0.9 3.5 0.00 0.00 0.00 89 1011.4
20260906143022 84 336 0.0 4.3 0.00 0.00 0.00 89 1011.3
20260906142528 83 336 1.7 4.3 0.00 0.00 0.00 91 1011.4
20260906142034 83 336 1.7 2.6 0.00 0.00 0.00 92 1011.4
20260906141522 82 342 0.0 0.0 0.00 0.00 0.00 93 1011.4
20260906141048 82 342 0.0 0.9 0.00 0.00 0.00 93 1011.3
20260906140531 82 302 0.0 0.0 0.00 0.00 0.00 94 1011.4
20260906140037 81 304 0.0 0.0 0.00 0.00 0.00 95 1011.4
20260906135539 81 304 0.0 0.0 0.00 0.00 0.00 95 1011.4
20260906135025 81 286 0.0 0.0 0.00 0.00 0.00 96 1011.4
20260906134528 80 293 0.0 0.0 0.00 0.00 0.00 96 1011.4
20260906134053 80 343 0.0 0.9 0.00 0.00 0.00 97 1011.6
20260906133539 80 343 0.0 3.5 0.00 0.00 0.00 97 1011.6
20260906133023 80 345 0.0 3.5 0.00 0.00 0.00 97 1011.7
20260906132528 80 336 0.0 0.0 0.00 0.00 0.00 98 1011.8
20260906132035 79 336 0.0 0.0 0.00 0.00 0.00 98 1011.7
20260906131522 79 337 0.0 1.7 0.00 0.00 0.00 98 1011.8
20260906131027 79 337 0.0 1.7 0.00 0.00 0.00 98 1011.7
20260906130532 79 271 0.0 0.0 0.00 0.00 0.00 98 1011.6
20260906130039 79 309 0.0 0.0 0.00 0.00 0.00 98 1011.6
20260906125602 79 312 0.0 0.0 0.00 0.00 0.00 98 1011.5
20260906125027 78 313 0.0 0.0 0.00 0.00 0.00 98 1011.4
20260906124534 78 310 0.0 0.0 0.00 0.00 0.00 98 1011.4
20260906124038 78 286 0.0 0.0 0.00 0.00 0.00 98 1011.4
20260906123525 78 285 0.0 0.0 0.00 0.00 0.00 98 1011.5
20260906123047 78 285 0.0 0.0 0.00 0.00 0.00 98 1011.4
20260906122532 78 285 0.0 0.0 0.00 0.00 0.00 98 1011.4
20260906122035 78 285 0.0 0.0 0.00 0.00 0.00 98 1011.3
20260906121602 78 285 0.0 0.0 0.00 0.00 0.00 98 1011.2
20260906121029 77 285 0.0 0.0 0.00 0.00 0.00 98 1011.2
20260906120534 77 285 0.0 0.0 0.00 0.00 0.00 98 1011.1
20260906120040 77 284 0.0 0.0 0.00 0.00 0.00 98 1011.0
20260906115524 77 271 0.0 0.0 0.00 0.00 0.00 98 1011.0
20260906115029 77 270 0.0 0.0 0.00 0.00 0.00 98 1010.9
20260906114535 77 270 0.0 0.0 0.00 0.00 0.00 97 1010.9
20260906114039 77 270 0.0 0.0 0.00 0.00 0.00 97 1011.0
20260906113525 77 270 0.0 0.0 0.00 0.00 0.00 97 1011.0
20260906113028 77 270 0.0 0.0 0.00 0.00 0.00 98 1010.9
20260906112532 77 270 0.0 0.0 0.00 0.00 0.00 98 1011.0
20260906112038 77 270 0.0 0.0 0.00 0.00 0.00 98 1011.0
20260906111526 78 270 0.0 0.0 0.00 0.00 0.00 98 1010.9
20260906111031 78 270 0.0 0.0 0.00 0.00 0.00 98 1010.9
20260906110555 78 270 0.0 0.0 0.00 0.00 0.00 98 1010.8
20260906110040 78 270 0.0 0.0 0.00 0.00 0.00 98 1010.7
20260906105544 78 270 0.0 0.0 0.00 0.00 0.00 98 1010.6
20260906105028 78 270 0.0 0.0 0.00 0.00 0.00 98 1010.6
20260906104534 78 270 0.0 0.0 0.00 0.00 0.00 98 1010.5
20260906104039 78 270 0.0 0.0 0.00 0.00 0.00 98 1010.6
20260906103546 77 270 0.0 0.0 0.00 0.00 0.00 98 1010.4
20260906103048 77 270 0.0 0.0 0.00 0.00 0.00 97 1010.4
20260906102532 77 273 0.0 0.0 0.00 0.00 0.00 97 1010.3
20260906102037 77 273 0.0 0.0 0.00 0.00 0.00 97 1010.3
20260906101542 77 273 0.0 0.0 0.00 0.00 0.00 98 1010.3
20260906101025 77 273 0.0 0.0 0.00 0.00 0.00 97 1010.4
20260906100534 77 273 0.0 0.0 0.00 0.00 0.00 97 1010.3
20260906100059 77 273 0.0 0.0 0.00 0.00 0.00 97 1010.4
20260906095522 77 273 0.0 0.0 0.00 0.00 0.00 97 1010.3
20260906095047 77 273 0.0 0.0 0.00 0.00 0.00 97 1010.2
20260906094532 77 273 0.0 0.0 0.00 0.00 0.00 97 1010.2
20260906094036 77 273 0.0 0.0 0.00 0.00 0.00 97 1010.1
20260906093523 77 273 0.0 0.0 0.00 0.00 0.00 97 1010.1
20260906093028 77 273 0.0 0.0 0.00 0.00 0.00 97 1010.1
20260906092533 77 273 0.0 0.0 0.00 0.00 0.00 97 1010.1
20260906092040 77 273 0.0 0.0 0.00 0.00 0.00 97 1010.1
20260906091525 77 273 0.0 0.0 0.00 0.00 0.00 97 1010.1
20260906091029 77 273 0.0 0.0 0.00 0.00 0.00 97 1010.1
20260906090540 77 273 0.0 0.0 0.00 0.00 0.00 97 1010.0
20260906090044 77 273 0.0 0.0 0.00 0.00 0.00 97 1010.1
20260906085548 77 273 0.0 0.0 0.00 0.00 0.00 97 1010.0
20260906085028 77 273 0.0 0.0 0.00 0.00 0.00 97 1010.0
20260906084535 77 273 0.0 0.0 0.00 0.00 0.00 97 1009.9
20260906084040 77 273 0.0 0.0 0.00 0.00 0.00 97 1009.9
20260906083526 77 273 0.0 0.0 0.00 0.00 0.00 97 1009.9
20260906083049 77 269 0.0 0.0 0.00 0.00 0.00 97 1009.9
20260906082533 78 269 0.0 0.0 0.00 0.00 0.00 97 1009.9
20260906082039 78 269 0.0 0.0 0.00 0.00 0.00 96 1009.9
20260906081524 78 269 0.0 0.0 0.00 0.00 0.00 96 1009.8
20260906081028 78 269 0.0 0.0 0.00 0.00 0.00 97 1009.8
20260906080532 78 269 0.0 0.0 0.00 0.00 0.00 97 1009.7
20260906080037 78 269 0.0 0.0 0.00 0.00 0.00 97 1009.7
20260906075524 78 269 0.0 0.0 0.00 0.00 0.00 97 1009.8
20260906075029 78 269 0.0 0.0 0.00 0.00 0.00 97 1009.7
20260906074534 78 269 0.0 0.0 0.00 0.00 0.00 97 1009.7
20260906074038 78 269 0.0 0.0 0.00 0.00 0.00 97 1009.6
20260906073525 78 269 0.0 0.0 0.00 0.00 0.00 97 1009.8
20260906073049 78 269 0.0 0.0 0.00 0.00 0.00 96 1009.8
20260906072532 78 229 0.0 0.0 0.00 0.00 0.00 96 1009.8
20260906072037 78 229 0.0 0.0 0.00 0.00 0.00 96 1009.9
20260906071603 78 229 0.0 0.0 0.00 0.00 0.00 96 1010.0
20260906070530 78 229 0.0 0.0 0.00 0.00 0.00 96 1010.0
20260906070056 78 229 0.0 0.0 0.00 0.00 0.00 96 1010.0
20260906065600 78 229 0.0 0.0 0.00 0.00 0.00 96 1009.9
20260906065044 78 229 0.0 0.0 0.00 0.00 0.00 96 1010.1
20260906064534 78 229 0.0 0.0 0.00 0.00 0.00 96 1009.9
20260906064038 78 229 0.0 0.0 0.00 0.00 0.00 96 1009.9
20260906063604 79 229 0.0 0.0 0.00 0.00 0.00 96 1009.9
20260906063026 79 229 0.0 0.0 0.00 0.00 0.00 96 1010.1
20260906062531 79 229 0.0 0.0 0.00 0.00 0.00 96 1010.1
20260906062035 79 229 0.0 0.0 0.00 0.00 0.00 96 1010.1
20260906061542 79 229 0.0 0.0 0.00 0.00 0.00 96 1010.1
20260906061024 79 229 0.0 0.0 0.00 0.00 0.00 96 1010.1
20260906060530 79 229 0.0 0.0 0.00 0.00 0.00 96 1010.2
20260906060035 79 229 0.0 0.0 0.00 0.00 0.00 96 1010.2
20260906055539 79 229 0.0 0.0 0.00 0.00 0.00 96 1010.3
20260906055028 79 229 0.0 0.0 0.00 0.00 0.00 96 1010.4
20260906054534 79 229 0.0 0.0 0.00 0.00 0.00 96 1010.4
20260906054037 79 229 0.0 0.0 0.00 0.00 0.00 96 1010.5
20260906053523 79 229 0.0 0.0 0.00 0.00 0.00 96 1010.5
20260906053048 79 229 0.0 0.0 0.00 0.00 0.00 96 1010.5
20260906052533 79 229 0.0 0.0 0.00 0.00 0.00 96 1010.5
20260906052038 79 229 0.0 0.0 0.00 0.00 0.00 96 1010.5
20260906051543 79 229 0.0 0.0 0.00 0.00 0.00 96 1010.5
20260906051027 79 229 0.0 0.0 0.00 0.00 0.00 96 1010.5
20260906050532 79 229 0.0 0.0 0.00 0.00 0.00 96 1010.5
20260906050038 79 229 0.0 0.0 0.00 0.00 0.00 96 1010.6
20260906045522 79 229 0.0 0.0 0.00 0.00 0.00 96 1010.6
20260906045032 79 229 0.0 0.0 0.00 0.00 0.00 96 1010.7
20260906044539 79 229 0.0 0.0 0.00 0.00 0.00 96 1010.6
20260906044023 80 229 0.0 0.0 0.00 0.00 0.00 96 1010.7
20260906043528 80 229 0.0 0.0 0.00 0.00 0.00 96 1010.5
20260906043034 80 229 0.0 0.0 0.00 0.00 0.00 96 1010.5
20260906042539 80 229 0.0 0.0 0.00 0.00 0.00 95 1010.6
20260906042023 80 229 0.0 0.0 0.00 0.00 0.00 96 1010.7
20260906041531 80 229 0.0 0.0 0.00 0.00 0.00 96 1010.7
20260906041034 80 228 0.0 0.0 0.00 0.00 0.00 96 1010.5
20260906040537 80 229 0.0 0.0 0.00 0.00 0.00 96 1010.7
20260906040042 79 229 0.0 0.0 0.00 0.00 0.00 96 1010.9
20260906035528 79 229 0.0 0.0 0.00 0.00 0.00 95 1010.9
20260906035032 79 229 0.0 0.0 0.00 0.00 0.00 95 1011.0
20260906034539 79 229 0.0 0.0 0.00 0.00 0.00 95 1011.0
20260906034043 79 229 0.0 0.0 0.00 0.00 0.00 95 1011.1
20260906033528 79 229 0.0 0.0 0.00 0.00 0.00 95 1011.3
20260906033032 79 229 0.0 0.0 0.00 0.00 0.00 95 1011.3
20260906032536 80 229 0.0 0.0 0.00 0.00 0.00 95 1011.4
20260906032042 80 229 0.0 0.0 0.00 0.00 0.00 95 1011.3
20260906031526 80 229 0.0 0.0 0.00 0.00 0.00 94 1011.3
20260906031051 80 229 0.0 0.0 0.00 0.00 0.00 94 1011.2
20260906030534 80 229 0.0 0.0 0.00 0.00 0.00 94 1011.2
20260906030040 80 229 0.0 0.0 0.00 0.00 0.00 94 1011.2
20260906025544 80 229 0.0 0.0 0.00 0.00 0.00 94 1011.2
20260906025032 80 229 0.0 0.0 0.00 0.00 0.00 94 1011.1
20260906024538 80 229 0.0 0.0 0.00 0.00 0.00 94 1011.1
20260906024022 80 229 0.0 0.0 0.00 0.00 0.00 94 1011.0
20260906023529 80 229 0.0 0.0 0.00 0.00 0.00 93 1011.1
20260906023052 80 229 0.0 0.0 0.00 0.00 0.00 93 1011.1
20260906022535 81 229 0.0 0.0 0.00 0.00 0.00 93 1011.1
20260906022042 81 229 0.0 0.0 0.00 0.00 0.00 93 1011.0
20260906021546 81 229 0.0 0.0 0.00 0.00 0.00 93 1010.8
20260906021049 81 229 0.0 0.0 0.00 0.00 0.00 93 1010.7
20260906020533 81 229 0.0 0.0 0.00 0.00 0.00 93 1010.7
20260906020040 81 229 0.0 0.0 0.00 0.00 0.00 93 1010.5
20260906015522 81 229 0.0 0.0 0.00 0.00 0.00 93 1010.4
20260906015028 81 231 0.0 0.0 0.00 0.00 0.00 93 1010.3
20260906014552 81 231 0.0 0.0 0.00 0.00 0.00 93 1010.2
20260906014040 81 231 0.0 0.9 0.00 0.00 0.00 92 1010.2
20260906013526 81 231 0.0 0.9 0.00 0.00 0.00 92 1010.2
20260906013030 81 244 0.0 0.0 0.00 0.00 0.00 92 1010.1
20260906012535 81 244 0.0 0.0 0.00 0.00 0.00 92 1010.0
20260906012040 81 244 0.0 0.0 0.00 0.00 0.00 92 1009.9
20260906011524 81 223 0.0 0.0 0.00 0.00 0.00 92 1009.8
20260906011028 82 234 0.0 0.0 0.00 0.00 0.00 92 1009.8
20260906010533 82 221 0.0 0.0 0.00 0.00 0.00 92 1009.8
20260906010039 82 221 0.0 0.0 0.00 0.00 0.00 91 1009.7
20260906005522 82 234 0.0 0.0 0.00 0.00 0.00 91 1009.6
20260906005030 82 227 0.0 0.0 0.00 0.00 0.00 90 1009.6
20260906004537 82 227 0.0 0.0 0.00 0.00 0.00 91 1009.7
20260906004040 82 227 0.0 0.0 0.00 0.00 0.00 90 1009.7
20260906003526 82 241 0.0 3.5 0.00 0.00 0.00 90 1009.6
20260906003050 82 241 0.0 3.5 0.00 0.00 0.00 89 1009.6
20260906002552 82 242 0.0 5.2 0.00 0.00 0.00 89 1009.6
20260906002035 82 233 1.7 3.5 0.00 0.00 0.00 89 1009.6
20260906001541 82 241 0.0 3.5 0.00 0.00 0.00 89 1009.6
20260906001026 82 241 1.7 4.3 0.00 0.00 0.00 89 1009.5
20260906000551 82 236 0.0 4.3 0.00 0.00 0.00 88 1009.6
20260906000036 83 224 0.0 3.5 0.00 0.00 0.00 88 1009.6
20260905235539 83 228 0.9 6.1 0.00 0.01 0.00 87 1009.5
20260905235024 83 229 2.6 6.1 0.00 0.01 0.00 87 1009.5
20260905234534 83 246 1.7 4.3 0.00 0.01 0.00 88 1009.6
20260905234038 83 228 0.0 4.3 0.00 0.01 0.00 87 1009.7
20260905233523 83 240 0.9 4.3 0.00 0.01 0.00 87 1009.7
20260905233028 83 249 0.9 3.5 0.00 0.01 0.00 87 1009.7
20260905232532 83 211 0.0 0.9 0.00 0.01 0.00 86 1009.7
20260905232039 84 161 0.0 0.0 0.00 0.01 0.00 86 1009.7
20260905231523 84 161 0.0 0.0 0.00 0.01 0.00 85 1009.8
20260905231028 84 161 0.0 0.0 0.00 0.01 0.00 85 1009.8
20260905230533 84 238 0.0 3.5 0.00 0.01 0.00 84 1009.8
20260905230039 85 238 0.0 3.5 0.00 0.01 0.00 84 1009.8
20260905225527 85 237 1.7 4.3 0.00 0.12 0.00 84 1009.9
20260905225032 85 211 0.9 4.3 0.00 0.12 0.00 84 1009.8
20260905224537 85 232 0.0 4.3 0.00 0.12 0.00 83 1009.8
20260905224022 85 148 1.7 4.3 0.00 0.12 0.00 83 1009.9
20260905223548 85 144 2.6 4.3 0.00 0.12 0.00 82 1009.9
20260905223031 85 162 0.0 0.9 0.00 0.12 0.00 84 1009.9
20260905222556 85 146 0.0 4.3 0.00 0.12 0.00 83 1009.9
20260905222041 85 157 0.0 4.3 0.00 0.12 0.00 83 1009.8
20260905221544 85 183 0.0 0.9 0.00 0.12 0.00 84 1009.7
20260905221028 85 161 0.0 3.5 0.00 0.12 0.00 84 1009.8
20260905220533 86 153 0.9 5.2 0.00 0.12 0.00 83 1009.9
20260905220037 86 134 0.0 1.7 0.00 0.12 0.00 82 1009.9
20260905215540 87 162 0.0 1.7 0.00 0.16 0.00 81 1009.9
20260905215029 87 161 0.0 6.1 0.00 0.16 0.00 80 1010.0
20260905214556 87 210 1.7 6.1 0.00 0.16 0.00 79 1010.1
20260905214059 87 250 3.5 6.1 0.00 0.16 0.00 79 1010.1
20260905213524 88 207 1.7 6.1 0.00 0.16 0.00 78 1010.0
20260905213028 88 265 2.6 6.1 0.00 0.16 0.00 78 1010.0
20260905212532 88 233 2.6 5.2 0.00 0.16 0.00 79 1010.0
20260905212039 88 239 3.5 5.2 0.00 0.16 0.00 79 1009.9
20260905211523 89 242 3.5 7.0 0.00 0.16 0.00 79 1009.9
20260905211048 89 238 1.7 6.1 0.00 0.16 0.00 79 1009.8
20260905210531 89 258 1.7 6.1 0.00 0.16 0.00 79 1009.9
20260905210037 90 246 3.5 9.6 0.00 0.16 0.00 78 1010.1
20260905205540 90 245 1.7 4.3 0.00 1.50 0.00 76 1010.2
20260905205026 91 184 0.0 4.3 0.00 1.50 0.00 74 1010.1
20260905204535 92 234 0.0 4.3 0.00 1.50 0.00 71 1010.1
20260905204039 93 225 0.0 3.5 0.00 1.50 0.00 69 1010.0
20260905203543 93 211 0.9 4.3 0.00 1.50 0.00 71 1010.0
20260905203026 94 224 2.6 4.3 0.00 1.50 0.00 68 1009.9
20260905202531 94 199 0.0 4.3 0.00 1.50 0.00 69 1009.8
20260905202036 93 187 1.7 5.2 0.00 1.50 0.00 68 1009.9
20260905201542 93 124 2.6 5.2 0.00 1.50 0.00 70 1010.2
20260905201027 93 182 0.0 3.5 0.00 1.50 0.00 71 1010.3
20260905200531 93 205 0.9 3.5 0.00 1.50 0.00 71 1010.5
20260905200037 93 184 1.7 2.6 0.00 1.50 0.00 69 1010.5
20260905195524 93 161 0.9 5.2 0.00 1.95 0.00 68 1010.5
20260905195048 93 248 1.7 5.2 0.00 1.95 0.00 70 1010.5
20260905194534 93 255 0.9 5.2 0.00 1.95 0.00 67 1010.5
20260905194038 93 167 1.7 4.3 0.00 1.95 0.00 68 1010.4
20260905193524 93 212 1.7 4.3 0.00 1.95 0.00 69 1010.5
20260905193028 92 208 1.7 3.5 0.00 1.95 0.00 71 1010.7
20260905192552 91 142 0.0 4.3 0.00 1.95 0.00 73 1010.8
20260905192036 91 221 1.7 4.3 0.00 1.95 0.00 73 1011.0
20260905191543 91 180 0.0 0.0 0.00 1.95 0.00 72 1011.0
20260905191025 90 252 0.0 0.0 0.00 1.95 0.00 73 1011.2
20260905190531 90 252 0.0 0.0 0.00 1.95 0.00 73 1011.2
20260905190037 91 252 0.0 0.0 0.00 1.95 0.00 73 1011.3
20260905185523 92 252 0.0 0.0 0.00 1.95 0.00 72 1011.4
20260905185029 92 252 0.0 0.0 0.00 1.95 0.00 71 1011.4
20260905184536 92 250 0.0 0.0 0.00 1.95 0.00 72 1011.4
20260905184040 92 248 0.0 0.0 0.00 1.95 0.00 70 1011.4
20260905183526 92 84 0.0 0.0 0.00 1.95 0.00 71 1011.3
20260905183030 92 60 0.0 3.5 0.00 1.95 0.00 73 1011.4
20260905182555 92 65 0.0 3.5 0.00 1.95 0.00 72 1011.4
20260905182100 92 71 0.9 1.7 0.00 1.95 0.00 70 1011.4
20260905181524 92 229 0.0 3.5 0.00 1.95 0.00 70 1011.5
20260905181028 92 229 1.7 4.3 0.00 1.95 0.00 72 1011.5
20260905180533 91 300 0.9 4.3 0.00 1.95 0.00 70 1011.7
20260905180038 91 277 0.9 1.7 0.00 1.95 0.00 72 1011.7
20260905175526 91 158 0.0 0.0 0.00 1.95 0.00 72 1011.7
20260905175050 92 196 0.0 0.0 0.00 1.95 0.00 70 1011.8
20260905174535 91 281 0.0 0.0 0.00 1.95 0.00 74 1012.0